Location: Arezzo
(43.4170°N, 11.8830°E)
Time: 02:34:56
(UTC+01:00)

STARLINK-2711 - Pass Details

Date: 31 October 2021
Orbit: 545 x 549 km, 53.1° (Epoch: 30 November)

Event Time Altitude Azimuth Distance (km) Brightness Sun altitude
Exits shadow 04:52:56 43° 338° (NNW) 775 4.1 -21.1°
Drops below altitude 10° 04:56:48 10° 47° (NE) 1,822 6.9 -20.4°
Sets 04:59:08 0° 54° (NE) 2,718 8.0 -20.0°
